ECMWFNIL_sfc_thetae_108.txt.gz
Theta_e
311 311 311 311 309 307 305 304 303 303 302 301 302 300 300 297 297 300 298 299 299 300 299 300 301 301 303 304 305 305 304 302 303 304 303 303 302 302 302 302 303 304
310 310 307 306 304 303 303 303 302 302 300 300 299 299 297 297 297 298 298 298 297 297 298 298 298 298 298 299 299 299 298 298 298 298 298 297 296 296 297 298 299 301
307 306 306 305 305 303 302 300 300 300 300 298 297 296 296 295 296 296 296 296 296 295 295 295 295 295 295 294 295 294 294 295 294 293 293 292 293 293 293 295 295 296
304 304 304 304 304 303 301 300 298 298 297 297 295 295 296 294 294 294 294 293 294 293 293 293 292 292 292 291 291 289 289 290 290 290 290 288 289 289 291 292 292 292
304 304 303 302 301 300 300 298 296 296 295 294 293 293 294 293 292 291 290 289 290 289 289 289 289 289 288 288 288 288 286 286 286 285 286 286 285 286 288 289 289 289
302 301 300 299 298 298 297 296 295 295 294 293 292 292 291 290 289 289 288 288 287 288 287 286 287 285 285 285 285 284 284 285 284 285 286 284 285 284 287 287 287 287
299 298 296 296 295 295 294 293 293 292 292 291 290 289 288 289 288 288 288 287 287 286 286 286 286 285 284 283 284 284 284 285 284 284 286 284 283 285 284 284 284 286
295 294 293 293 293 292 291 290 290 289 289 289 289 286 287 288 288 286 285 286 286 286 285 285 284 284 283 283 285 285 285 283 284 284 284 284 283 285 285 284 284 285
292 291 291 291 290 290 289 289 288 287 288 289 288 286 285 286 286 285 285 285 285 284 285 284 284 283 283 284 283 283 285 284 283 283 284 285 285 285 285 284 284 284
290 290 290 290 289 289 288 287 287 287 286 287 286 286 286 285 284 284 285 285 285 285 285 284 285 284 284 283 285 284 285 285 284 284 284 284 284 285 284 284 284 284
288 289 289 288 288 287 287 286 286 286 285 286 285 285 284 284 283 282 284 285 286 285 284 284 284 284 285 285 284 283 284 284 285 284 284 283 283 283 284 284 283 283
287 287 287 287 287 287 286 286 286 285 284 284 284 284 283 283 284 283 284 284 283 283 283 283 283 283 283 284 284 284 283 283 283 283 283 283 282 283 283 282 282 282
286 286 286 286 286 286 285 285 284 284 284 284 283 284 284 284 283 283 282 283 283 283 283 283 284 283 283 283 283 282 282 282 281 281 282 281 281 282 282 281 281 282
285 285 285 285 285 284 284 284 284 284 283 283 283 284 283 283 283 283 281 282 282 282 282 282 282 282 282 282 282 282 282 281 281 281 281 281 280 281 280 280 281 281
284 284 284 284 284 284 283 283 283 283 283 283 283 283 283 282 281 282 282 282 282 281 281 282 282 283 282 282 282 282 282 281 281 280 280 280 280 280 280 281 280 280
284 283 283 283 283 283 283 283 283 282 283 282 282 282 282 281 281 281 281 281 281 280 280 282 282 282 284 288 289 284 282 282 282 281 280 280 280 280 280 280 280 280
283 283 283 283 283 282 282 282 282 282 282 282 281 281 281 281 281 280 280 280 280 280 280 281 282 283 287 289 289 289 284 281 281 281 280 280 279 279 279 279 279 279
283 283 282 282 282 282 282 281 281 281 281 281 281 280 280 280 280 279 280 279 280 279 280 280 280 285 287 288 288 288 288 284 281 281 281 280 279 279 279 279 279 279
282 282 282 282 281 281 281 281 281 280 280 280 280 279 279 279 279 279 279 279 279 279 279 279 279 285 287 287 287 287 288 286 281 280 279 279 279 278 278 278 278 279
282 282 282 281 281 280 280 280 280 280 279 279 279 278 278 278 278 278 278 278 279 278 278 278 278 284 286 286 286 287 287 285 279 279 279 278 278 278 278 278 278 278
282 281 281 280 280 280 279 279 279 279 279 278 278 278 278 278 277 277 277 276 277 276 278 278 279 284 284 285 285 286 286 283 278 279 278 277 278 277 277 278 278 278
281 281 280 280 279 279 279 278 278 278 278 278 277 277 277 277 277 277 277 276 277 278 278 277 278 283 283 284 284 285 285 278 277 277 277 277 277 277 277 277 278 278
281 280 280 279 278 278 278 277 277 277 277 276 277 277 277 277 276 276 277 278 279 279 278 278 278 280 282 283 283 284 283 276 276 275 276 276 276 276 277 277 277 278
280 280 279 278 278 277 277 277 277 277 277 276 277 276 277 276 276 277 278 278 278 278 278 277 278 279 281 282 282 283 282 277 276 275 275 275 275 276 277 277 277 278
279 279 278 277 277 277 277 277 276 276 276 276 276 275 276 276 277 277 277 278 278 278 278 277 277 277 280 281 282 282 281 276 275 274 274 275 276 277 276 277 277 278
278 278 277 277 277 276 276 276 276 275 275 274 274 275 275 276 276 277 276 276 277 277 277 277 276 275 276 280 280 281 282 278 274 273 274 276 277 276 275 276 276 276

ECMWFNIL_sfc_thetae_114.txt.gz
Theta_e
318 316 317 315 315 314 312 312 312 312 312 311 312 308 308 304 301 304 303 304 303 303 302 301 300 299 299 298 298 298 297 296 296 296 294 294 293 294 294 295 295 295
316 314 312 314 312 310 311 313 312 313 311 310 308 305 302 301 300 302 301 301 301 300 299 297 297 297 297 297 297 296 295 295 295 294 291 291 291 291 291 292 292 292
313 312 312 312 312 310 310 310 311 310 308 305 303 302 300 300 299 299 299 299 297 295 295 294 295 295 295 295 294 293 292 292 292 291 290 290 290 289 288 290 290 289
312 313 312 313 312 310 309 308 307 305 303 301 301 300 299 298 298 297 296 294 294 292 292 292 292 291 291 291 289 288 289 288 288 287 285 285 285 286 286 287 286 286
312 312 312 312 311 309 307 307 304 303 303 301 299 298 297 297 296 293 292 290 291 289 289 289 288 288 287 287 287 286 286 284 284 283 282 282 284 284 283 282 283 283
310 311 310 310 308 307 307 305 303 302 300 299 298 297 297 296 293 291 290 289 288 288 287 286 286 286 286 286 285 284 284 283 282 284 283 282 282 282 283 282 281 282
307 308 307 307 306 306 306 303 301 300 299 298 295 295 294 292 290 290 289 288 288 288 287 286 286 285 285 285 284 284 283 283 282 283 283 282 282 282 281 281 282 281
306 306 305 305 305 303 301 299 298 297 295 294 294 291 291 290 289 288 288 288 288 287 286 286 284 283 284 284 284 284 283 282 282 283 283 282 281 281 281 281 281 281
302 301 301 301 300 298 297 296 295 293 293 294 291 289 288 289 288 288 288 287 287 286 285 285 285 284 284 285 284 284 284 283 282 282 282 282 281 280 280 281 280 280
299 298 298 298 297 296 295 293 292 292 291 292 289 288 287 286 287 287 287 286 286 285 285 284 284 284 284 284 284 284 283 283 282 282 281 281 281 281 280 281 280 280
296 296 297 296 294 293 292 291 291 290 290 289 288 287 287 286 286 286 286 285 285 284 284 284 284 284 284 283 283 283 283 283 282 282 282 281 281 281 282 281 281 280
294 295 294 293 292 291 291 291 290 290 289 287 288 287 286 286 285 285 285 284 284 283 283 283 283 283 283 283 283 283 283 282 282 282 282 281 281 281 281 281 281 280
293 293 292 292 291 291 290 290 289 288 288 287 286 286 285 284 284 283 283 283 283 283 283 283 283 283 283 283 283 282 282 282 282 282 281 281 281 281 281 281 281 280
291 290 291 290 290 290 289 289 288 286 286 285 285 285 284 283 283 283 282 282 282 282 283 283 283 283 283 283 282 282 282 282 281 281 281 281 280 280 280 280 280 280
290 289 289 289 288 288 287 286 285 284 284 284 283 283 283 282 282 282 282 282 282 282 283 283 283 283 283 283 282 282 282 281 281 280 280 280 279 279 280 280 279 279
289 289 288 288 287 286 285 284 284 284 283 283 282 282 282 282 282 282 282 281 281 281 283 284 284 284 285 286 285 282 281 281 281 280 280 279 279 279 279 279 279 279
288 287 287 287 286 285 284 283 283 283 282 282 281 281 281 281 281 281 281 281 281 282 283 284 285 286 288 287 286 284 281 280 280 280 279 279 279 279 278 278 278 279
287 286 286 285 284 283 283 283 282 282 282 281 281 280 280 280 280 280 280 280 281 281 282 283 284 288 288 286 285 284 282 280 280 279 279 279 279 278 278 278 278 278
286 286 285 284 283 283 282 282 282 281 281 281 280 280 280 280 280 280 279 279 280 281 281 282 284 288 287 286 285 284 283 281 279 279 278 278 278 278 278 278 278 277
286 285 284 283 282 282 282 281 281 281 280 280 280 279 279 279 279 279 279 279 279 280 281 282 283 287 287 286 284 284 283 281 279 279 278 278 278 278 278 278 277 277
284 284 283 282 281 281 281 281 281 280 279 279 279 279 279 279 278 278 278 278 279 280 281 281 283 287 286 285 284 283 282 280 278 279 278 278 278 278 278 278 277 277
283 283 282 281 281 281 281 280 280 279 279 278 278 278 278 278 277 278 277 277 278 279 280 280 283 286 285 285 284 283 281 279 278 278 277 277 278 278 278 278 277 277
283 283 282 281 281 280 280 280 279 278 278 278 278 278 278 277 277 277 277 277 277 278 278 279 281 284 285 284 283 282 279 278 278 277 277 277 277 277 277 277 277 277
283 282 282 281 281 280 280 279 278 278 278 278 278 277 277 277 277 276 276 277 276 276 277 278 279 282 284 284 282 281 279 277 277 277 277 277 277 277 277 277 277 277
282 282 281 281 280 280 279 278 278 278 277 277 277 277 276 276 276 276 275 275 276 276 277 276 277 281 283 283 282 281 278 277 277 277 277 277 276 276 277 276 276 277
281 280 280 280 279 278 278 277 277 276 276 276 276 276 276 276 275 275 274 275 275 275 275 275 276 277 281 283 282 281 280 277 277 276 276 276 276 276 275 276 276 276

ECMWFNIL_sfc_thetae_117.txt.gz
Theta_e
323 323 322 321 322 322 321 320 320 319 318 317 315 315 315 315 311 312 312 310 309 308 307 306 305 304 303 304 304 304 303 301 299 298 299 299 298 297 296 296 296 296
321 321 320 321 320 319 319 320 319 319 317 317 317 316 313 310 309 309 308 306 306 306 305 304 303 302 301 301 301 301 299 299 296 296 295 294 294 293 293 293 293 293
320 320 319 319 319 318 317 318 318 318 317 316 315 312 308 308 307 306 305 305 304 303 303 301 300 300 299 298 299 298 297 296 294 293 293 292 291 290 290 291 291 291
318 319 319 319 318 317 316 315 315 315 313 310 309 308 306 305 305 303 302 300 302 300 300 298 296 296 295 295 295 294 294 293 291 290 288 287 288 288 289 289 288 288
317 317 317 317 317 316 314 314 313 312 310 310 306 304 303 303 303 301 300 299 299 296 295 294 294 293 292 292 292 290 289 288 287 288 287 287 286 286 286 288 288 287
315 316 315 316 315 314 313 313 312 310 308 305 304 302 303 302 300 299 298 296 294 294 292 291 291 290 290 289 289 288 288 288 287 287 287 286 286 286 286 287 287 287
312 313 313 315 314 314 313 312 311 308 307 305 301 301 301 300 298 297 296 295 294 293 292 291 290 288 288 288 288 287 287 287 287 287 287 287 287 286 286 287 287 286
311 311 312 312 311 310 310 308 306 304 302 300 300 299 300 299 298 295 294 294 294 293 292 291 290 288 288 288 286 286 286 286 287 287 286 286 287 286 286 286 286 285
307 307 307 307 307 305 304 302 301 299 299 300 297 295 295 297 295 294 294 293 292 291 290 289 289 288 287 287 287 286 286 286 287 286 286 286 286 285 285 285 285 284
302 301 303 303 303 301 300 298 298 297 297 297 295 294 293 292 293 292 292 292 291 289 289 288 288 287 287 287 287 287 286 286 286 286 286 285 285 285 285 284 284 283
298 299 300 299 298 297 296 295 294 294 293 293 292 292 292 292 291 291 291 291 290 289 288 287 287 287 287 286 286 286 286 286 285 285 285 285 285 284 284 284 283 283
296 297 297 296 295 294 293 293 292 292 292 292 292 292 291 291 290 290 290 289 288 288 287 287 287 286 286 286 285 285 285 285 285 285 284 284 284 284 284 283 283 282
294 294 295 293 292 292 292 292 292 291 291 292 292 291 291 290 289 288 287 287 287 286 286 286 286 286 285 285 285 285 285 284 284 284 283 283 283 283 283 283 282 282
292 292 292 293 292 292 292 292 291 291 291 290 290 290 289 288 287 287 286 286 285 285 285 285 285 285 285 285 285 284 284 284 283 283 282 282 282 282 282 282 282 282
291 291 291 290 290 290 290 290 290 289 289 288 288 288 287 287 286 285 284 284 285 285 285 285 285 285 285 284 284 284 284 283 283 282 282 281 281 281 281 281 281 281
290 290 290 290 290 290 289 289 288 288 287 287 286 286 285 285 284 284 284 284 284 284 284 285 284 285 284 285 285 283 283 283 282 282 281 281 280 280 280 280 280 281
290 289 290 289 290 289 288 288 287 287 286 285 285 284 284 284 284 284 284 284 284 284 284 285 285 285 286 287 286 285 283 282 282 281 281 281 280 280 279 279 280 280
290 290 289 289 288 288 287 287 286 286 285 285 284 283 283 283 283 283 283 284 284 285 285 285 285 286 288 287 286 285 283 282 282 281 281 280 280 280 279 279 279 279
290 289 289 288 288 287 287 286 285 285 284 284 283 283 283 282 282 282 283 283 284 285 285 286 286 288 287 287 286 285 284 282 281 281 280 280 280 279 279 279 279 278
289 288 288 288 287 286 286 285 285 285 284 283 282 282 282 281 281 282 282 283 284 285 285 286 286 287 287 287 286 285 284 282 281 280 280 280 279 279 279 278 278 278
288 288 287 287 286 285 285 285 284 283 282 282 282 282 281 281 281 281 281 282 283 284 285 285 285 287 287 286 286 285 284 282 280 280 280 279 279 279 278 278 278 278
288 288 287 286 285 284 284 284 283 282 281 281 281 281 280 280 280 281 281 281 282 283 284 284 285 286 286 286 285 285 283 280 280 279 279 279 278 278 278 278 278 278
288 287 286 285 284 284 283 283 282 280 280 280 280 280 279 279 279 279 280 281 281 282 283 284 285 285 286 285 285 284 281 279 279 279 279 278 278 278 278 278 278 278
287 287 286 285 284 284 283 282 281 280 280 280 280 279 278 278 278 279 279 280 281 281 282 283 283 284 285 285 284 283 280 278 279 279 278 278 277 278 278 278 278 278
287 286 286 285 284 284 283 281 280 279 279 279 279 279 278 278 278 278 277 278 279 280 280 282 282 283 285 284 283 282 280 279 279 278 277 277 277 277 277 277 277 278
286 285 285 284 284 283 282 281 279 278 278 278 278 278 277 277 277 277 276 276 277 278 279 281 282 282 283 284 283 282 281 279 279 277 276 276 277 277 276 276 276 277

ECMWFNIL_sfc_thetae_120.txt.gz
Theta_e
327 328 328 328 328 328 328 326 327 327 327 326 326 325 325 325 325 322 321 320 320 320 319 320 320 319 316 316 317 316 316 315 313 311 312 310 309 307 305 305 305 304
327 327 327 328 328 328 327 328 327 327 326 326 327 327 326 324 321 320 319 319 318 317 316 317 317 315 314 313 313 312 310 308 305 306 307 306 304 304 303 303 302 301
326 326 326 326 326 327 327 328 327 327 326 326 327 326 322 320 317 317 317 317 316 317 316 315 311 311 312 312 312 309 309 307 304 304 305 302 301 302 302 301 299 299
324 325 326 326 326 326 327 325 325 325 326 324 323 322 318 315 315 314 315 311 315 313 313 311 308 308 308 308 310 310 308 305 303 303 303 301 300 298 298 298 297 297
322 323 324 325 325 326 326 324 321 322 322 321 320 316 314 312 312 311 310 310 312 310 307 305 304 303 304 305 306 307 305 303 301 300 297 295 296 296 296 296 295 294
321 322 322 322 323 323 323 322 320 320 319 317 316 313 312 311 310 309 308 308 307 304 301 300 300 301 302 302 304 303 297 296 295 296 295 293 293 294 295 294 293 292
318 319 320 320 320 321 321 320 320 319 318 317 313 310 309 308 307 307 308 307 305 300 296 297 298 298 300 301 300 299 297 295 294 294 293 293 292 292 293 293 292 291
316 317 318 319 318 318 317 317 318 317 316 311 309 309 307 307 306 304 303 302 301 299 298 298 296 297 297 298 297 296 294 294 293 293 292 291 291 290 291 292 291 289
314 314 314 314 315 314 314 314 314 312 310 308 306 303 303 304 303 302 300 299 297 296 298 298 296 295 295 295 294 293 292 292 293 292 291 291 290 290 290 290 290 289
310 311 311 311 311 309 310 308 305 303 302 304 303 301 301 300 301 299 298 297 296 296 297 297 294 293 293 293 292 292 291 291 291 292 291 291 290 289 289 289 288 287
308 307 308 308 307 304 304 302 301 301 300 300 299 299 300 299 298 298 298 298 298 299 298 295 293 292 292 292 292 292 291 291 291 291 291 290 289 289 287 288 288 287
304 303 304 304 303 302 300 300 299 299 299 298 299 299 295 295 297 296 296 298 299 299 297 294 292 292 292 291 291 291 290 290 290 290 289 289 288 288 288 288 287 287
300 301 302 302 300 300 297 297 297 296 296 296 296 296 295 294 294 295 295 296 296 296 296 294 292 291 291 290 290 289 289 289 288 288 288 287 287 287 287 287 286 286
299 299 299 299 297 295 295 294 294 294 294 294 294 294 294 294 294 295 294 296 298 298 294 292 291 290 290 289 289 289 288 288 287 287 286 286 286 286 286 285 286 286
295 295 295 294 293 293 293 293 293 293 292 292 292 293 294 293 293 293 292 292 292 291 290 290 290 290 289 288 288 288 288 287 287 286 286 285 285 285 285 285 285 285
294 293 293 293 293 293 293 292 292 291 291 291 291 291 291 292 293 292 292 292 290 288 289 289 289 289 287 287 288 288 288 287 287 286 286 285 284 284 284 284 285 285
293 292 292 292 291 292 292 291 291 291 291 291 290 290 289 288 289 289 289 289 289 288 288 288 288 287 286 288 289 288 288 287 286 286 286 285 284 284 283 284 284 284
293 292 292 292 291 291 290 290 290 289 290 290 289 288 287 287 288 288 287 287 287 288 287 287 287 286 288 288 288 288 287 287 287 286 285 285 285 284 284 283 283 283
293 292 292 291 292 291 290 289 288 288 288 287 287 287 286 286 287 287 286 287 287 287 287 287 287 287 288 288 288 288 287 287 287 286 285 285 285 284 284 283 283 282
294 293 292 291 290 289 288 287 288 288 288 287 287 286 286 286 286 286 286 286 287 288 287 287 287 287 288 288 287 287 287 287 287 286 286 285 284 284 284 283 282 282
292 292 293 292 290 288 288 287 288 287 286 286 286 286 286 285 286 285 286 287 287 287 288 288 288 288 288 288 287 287 287 286 286 286 285 284 284 283 283 283 282 282
291 291 291 291 290 289 288 287 287 287 286 286 286 286 286 286 286 286 286 286 287 288 287 286 287 288 288 287 287 287 286 285 285 284 284 283 282 282 282 282 282 282
294 292 290 289 288 287 287 287 287 286 286 285 285 285 285 285 285 286 286 286 286 287 287 287 287 287 287 287 287 287 285 284 284 283 283 282 282 281 281 281 281 281
294 293 290 288 287 287 287 287 286 286 285 285 285 285 284 285 285 285 286 286 286 286 287 286 286 286 287 287 287 286 284 284 283 283 282 281 281 281 281 281 280 280
293 291 289 288 287 287 287 286 285 285 285 285 285 285 285 285 285 285 285 286 286 286 285 286 286 285 287 287 286 286 284 284 283 283 281 281 280 280 280 280 279 280
290 288 288 288 287 287 287 286 285 285 284 284 284 284 284 284 284 285 284 285 285 285 285 286 285 285 286 287 286 285 284 283 283 282 281 280 280 280 279 279 279 280

ECMWFNIL_sfc_thetae_123.txt.gz
Theta_e
327 327 328 327 328 328 328 327 327 327 327 328 328 328 329 330 331 331 330 328 328 327 325 325 324 324 323 323 323 322 321 320 319 319 318 318 317 317 314 313 312 311
326 327 326 327 327 328 328 329 328 327 327 328 328 329 329 329 330 330 329 327 326 325 324 324 324 323 322 321 321 321 319 318 317 317 316 315 312 312 312 312 310 310
326 326 326 326 326 327 328 329 329 328 327 327 329 329 329 329 329 328 327 325 323 322 322 323 322 321 320 320 320 319 317 316 315 313 314 311 309 309 309 309 309 308
324 325 325 326 326 327 328 328 328 328 328 327 328 328 328 328 328 325 323 316 321 319 318 318 319 319 318 318 316 313 312 311 310 310 309 306 306 306 306 307 306 303
323 324 325 325 326 327 327 327 328 328 328 328 328 327 325 323 323 320 318 317 318 316 315 314 312 312 313 312 312 311 310 308 307 307 305 303 304 305 306 304 300 299
323 324 324 325 326 326 326 326 326 325 325 324 324 325 324 321 318 316 314 313 312 313 312 310 309 307 309 310 311 311 308 305 304 303 300 299 298 299 299 298 297 295
320 322 323 324 324 325 324 324 325 323 323 324 322 320 319 317 315 313 312 311 310 308 306 305 306 305 306 307 308 306 303 302 299 300 300 297 297 296 296 296 294 292
317 319 320 321 321 321 320 321 321 320 320 319 318 315 314 314 313 312 310 310 309 307 305 304 305 306 304 305 303 301 300 301 297 298 298 295 294 293 293 293 292 291
314 316 317 317 318 318 317 318 318 317 316 316 314 311 309 311 310 309 309 308 307 305 305 303 304 303 301 302 301 301 300 298 297 297 297 294 292 291 291 291 290 289
311 313 314 313 314 314 314 315 313 312 310 312 311 308 307 306 308 308 307 306 305 303 303 301 300 300 299 300 300 299 299 299 296 295 295 293 291 290 290 290 289 288
309 310 311 310 311 310 310 309 307 306 305 308 306 305 306 304 303 303 304 303 303 302 301 300 300 299 299 298 298 298 298 297 294 294 292 291 290 290 289 289 288 287
307 308 308 309 308 307 306 305 304 304 304 303 304 305 302 301 302 299 300 300 299 299 299 298 298 297 297 296 295 295 295 294 293 291 291 290 289 289 289 289 288 287
306 306 307 307 306 305 304 302 302 299 299 300 298 300 299 298 297 297 296 297 298 297 297 295 295 294 294 294 294 294 293 291 290 290 289 288 288 288 288 288 288 287
305 304 303 303 302 301 299 298 297 295 296 295 294 295 295 295 296 296 295 296 297 297 297 295 294 294 293 293 292 292 291 290 289 288 288 287 287 287 287 287 287 287
303 301 300 298 296 297 296 295 294 293 292 292 293 293 295 293 294 295 295 294 293 293 293 293 293 293 292 291 291 290 289 289 288 287 287 286 286 286 286 286 286 287
298 298 298 296 296 295 293 292 292 292 292 292 292 292 292 292 293 293 294 294 293 292 292 292 292 292 289 290 290 289 289 288 288 287 286 286 285 285 285 286 286 286
297 295 294 293 295 295 294 292 292 292 291 291 291 291 291 291 292 292 292 292 292 291 291 291 291 290 289 291 291 291 289 288 287 287 286 286 285 284 284 284 285 284
296 294 293 293 293 293 293 293 292 292 291 291 290 290 289 289 290 291 292 291 291 290 290 290 290 289 290 291 291 291 289 288 287 286 286 285 285 285 284 284 284 283
296 295 294 294 293 293 293 291 289 289 290 289 289 289 290 289 290 290 290 290 290 290 290 290 289 289 290 291 291 290 290 288 287 286 286 285 285 285 284 284 283 283
297 296 294 294 293 292 292 291 289 289 289 290 289 288 288 289 289 289 289 289 289 289 289 288 288 288 290 290 290 290 290 289 287 286 286 285 285 285 284 284 283 282
295 295 294 293 292 290 289 289 290 289 288 288 287 287 287 287 288 288 288 287 288 288 288 287 287 288 290 290 290 290 290 289 287 287 286 285 285 285 284 284 283 283
294 294 294 294 291 289 288 288 288 288 287 288 287 288 287 287 287 287 286 286 287 287 287 287 287 289 289 289 290 290 290 287 287 286 285 285 284 284 284 284 283 283
294 293 292 292 290 289 288 288 288 288 287 287 287 287 286 287 286 287 287 287 287 287 287 287 287 288 289 289 289 290 289 286 285 285 284 284 283 283 283 283 283 283
295 294 290 289 288 288 288 288 288 288 287 287 287 287 286 286 287 286 287 287 286 287 287 287 287 287 288 289 289 289 287 285 285 285 283 283 282 282 282 282 282 283
295 293 291 289 289 288 288 288 287 287 287 286 287 287 286 286 286 286 286 286 286 286 286 286 286 286 288 289 289 289 287 285 285 284 283 282 281 281 281 281 281 282
295 290 290 289 288 288 288 288 287 286 286 286 286 286 286 286 286 286 285 286 286 286 286 286 286 286 286 288 288 288 287 285 285 284 282 282 281 281 280 280 280 280

ECMWFNIL_sfc_thetae_126.txt.gz
Theta_e
325 324 323 323 324 324 323 323 323 323 323 323 323 324 324 324 324 326 328 329 329 328 326 324 324 325 324 323 322 322 322 322 321 322 321 320 319 317 316 313 312 312
324 323 321 322 321 322 323 323 323 323 323 323 323 322 323 324 325 326 327 327 327 327 326 324 323 324 323 322 322 322 320 320 319 319 319 318 317 315 315 312 310 309
321 321 321 320 321 320 321 322 322 323 322 322 322 322 323 324 325 327 327 327 326 325 325 324 323 322 322 322 322 320 318 317 317 316 315 316 312 313 312 309 308 307
318 319 319 319 319 319 320 320 321 321 321 321 322 323 323 323 325 326 326 320 325 324 323 323 322 321 321 320 319 317 316 316 316 314 313 308 308 308 308 307 306 302
315 317 318 318 319 319 319 319 319 320 320 321 321 321 321 321 322 323 324 323 323 322 321 320 320 319 318 318 318 314 313 312 310 310 307 305 304 305 305 305 302 299
312 313 314 316 316 317 319 319 318 318 319 316 317 317 320 318 318 318 317 317 316 317 316 315 315 315 315 315 315 313 310 307 305 305 304 303 302 302 304 302 301 298
310 311 312 312 313 313 313 314 314 313 315 315 317 316 317 314 314 315 315 314 314 312 313 312 312 311 311 312 312 310 308 306 304 304 302 300 300 299 299 299 299 296
307 308 309 310 311 311 310 311 311 312 313 312 312 311 313 314 314 312 311 313 313 312 310 310 310 311 309 311 310 307 304 304 303 302 301 298 298 297 295 296 296 293
306 308 309 308 308 308 308 308 308 309 311 310 309 309 308 312 314 313 312 311 311 309 309 307 308 307 304 305 306 305 303 302 301 301 299 297 296 296 294 293 292 291
301 303 306 307 308 308 308 308 309 309 308 309 310 308 308 307 308 309 309 309 308 306 305 305 305 303 302 303 304 302 301 300 298 299 298 297 296 294 293 292 291 289
297 298 299 301 303 304 304 304 304 304 304 305 304 305 306 305 304 303 304 305 306 305 304 303 302 301 302 302 302 301 301 300 298 298 296 295 294 293 291 291 290 289
300 300 301 301 302 302 301 302 302 302 302 301 302 304 302 301 301 300 301 303 303 303 303 302 300 300 300 301 300 299 299 298 297 297 296 294 293 292 291 290 289 288
300 301 301 301 301 301 300 300 299 298 299 299 298 299 299 298 297 297 295 297 299 298 299 299 299 297 297 296 295 295 295 294 293 293 292 292 291 290 289 288 287 286
298 298 298 299 298 299 298 298 298 296 296 295 295 296 295 294 295 296 294 294 296 295 296 294 293 293 293 293 293 292 293 293 292 291 290 288 287 287 287 286 285 285
299 297 297 295 294 295 295 294 293 292 291 292 292 293 294 293 293 294 293 293 293 292 293 292 294 294 293 293 293 292 292 291 290 289 288 287 286 285 285 285 284 284
296 295 295 295 294 293 291 290 290 289 290 290 290 290 291 291 292 291 291 292 292 291 292 292 293 294 292 292 293 293 292 291 289 288 287 286 285 284 283 284 283 283
294 293 292 291 291 290 290 289 289 289 289 289 289 290 290 290 290 291 290 290 292 292 291 291 293 293 291 293 294 293 291 290 289 287 286 285 285 284 283 282 282 282
293 292 290 290 290 290 290 290 289 289 289 289 289 289 289 289 290 290 291 291 291 290 290 290 290 291 292 293 293 293 291 289 288 287 286 285 284 283 282 282 282 281
292 291 290 290 290 289 290 289 289 288 288 288 289 288 288 289 290 290 290 290 290 290 290 290 289 290 292 292 293 292 292 289 287 287 285 284 283 282 282 282 281 281
292 291 290 290 289 289 288 288 287 288 288 288 288 288 288 288 288 289 288 289 289 289 289 289 289 289 292 292 292 292 292 290 287 286 285 284 283 282 282 281 281 280
292 291 290 290 289 288 287 287 287 287 287 287 287 287 287 287 287 287 288 287 288 288 289 288 288 289 291 291 292 292 292 289 286 286 285 283 282 281 281 281 281 280
291 291 290 289 288 288 287 287 287 287 287 287 287 287 287 287 287 287 287 286 287 287 287 287 287 289 290 291 291 292 292 287 286 285 284 283 281 281 280 280 280 280
291 291 290 289 288 287 287 287 287 287 287 287 286 287 286 286 286 286 286 286 286 286 286 287 286 288 289 290 291 291 290 286 285 285 284 283 281 280 280 280 280 279
292 291 290 289 288 288 287 287 287 287 286 286 286 286 286 286 286 286 286 286 286 286 287 286 286 286 289 289 290 291 289 286 285 285 283 283 280 279 280 279 280 281
291 290 289 289 288 288 287 287 287 287 286 286 286 286 286 286 286 286 286 286 286 286 286 286 286 286 288 289 290 290 288 285 285 284 282 281 279 278 278 279 279 281
291 289 288 288 287 287 287 287 287 286 286 286 286 286 286 286 286 286 286 286 286 286 286 286 286 286 286 289 289 289 289 286 285 283 282 280 278 278 277 275 278 278

ECMWFNIL_sfc_thetae_129.txt.gz
Theta_e
324 324 323 322 322 322 321 320 319 320 321 321 322 322 322 323 321 323 324 325 325 325 324 325 326 326 326 325 324 324 322 322 321 322 321 320 320 319 317 316 315 315
323 322 321 320 319 319 319 319 320 320 320 320 321 322 322 320 321 322 323 323 323 323 324 324 325 325 325 324 323 323 322 321 320 321 321 320 320 319 318 316 315 315
319 318 319 319 319 318 318 318 319 320 320 320 320 320 320 319 320 320 322 322 322 322 324 324 324 323 325 325 323 321 320 319 320 319 318 319 318 317 316 315 313 313
316 318 319 318 317 318 317 317 317 317 317 318 318 318 317 316 318 319 320 315 321 321 323 324 323 321 320 321 323 321 319 319 319 317 317 315 315 316 316 314 311 308
314 315 316 316 316 316 315 316 316 314 313 314 312 312 312 312 315 316 317 317 319 320 320 321 322 322 320 319 317 318 319 319 316 315 315 314 312 312 310 308 304 302
308 309 310 312 311 312 312 312 311 310 310 311 311 309 311 312 314 316 315 315 315 317 316 316 316 316 319 320 318 316 311 307 306 307 306 305 302 302 305 305 303 299
306 307 307 305 307 308 309 309 310 307 307 307 306 311 309 309 311 314 316 316 316 314 315 315 316 315 313 314 317 318 314 312 309 309 308 303 302 300 300 302 302 301
302 300 303 304 304 303 304 304 304 304 304 304 308 303 306 308 309 310 309 311 314 315 315 313 311 314 313 314 312 309 307 308 307 307 306 304 303 303 300 300 299 297
300 299 301 300 302 301 302 301 300 301 302 307 304 305 305 308 307 307 308 309 310 309 311 309 311 310 308 308 309 310 309 306 305 306 306 305 303 303 301 298 297 296
293 291 295 296 302 301 303 302 301 301 301 305 306 306 307 304 304 306 306 305 305 305 305 307 308 308 307 306 309 308 307 305 301 301 301 301 302 301 298 298 299 297
290 291 293 293 296 298 301 299 298 298 298 300 301 303 303 303 303 302 304 304 306 307 307 306 305 305 305 305 304 304 305 304 303 302 301 300 300 299 296 297 297 297
291 293 293 294 296 298 298 298 298 297 297 297 298 303 300 299 301 300 299 302 301 303 303 303 302 302 303 304 304 302 301 301 300 301 300 300 299 297 296 295 295 295
297 298 298 298 297 298 299 298 297 296 298 297 294 297 298 298 297 297 295 297 298 298 299 299 299 298 298 298 298 298 298 297 295 295 294 294 295 295 295 294 294 294
296 298 298 297 298 298 296 296 297 296 295 293 293 295 295 295 296 296 294 294 295 296 296 296 295 295 296 296 296 296 295 294 294 295 294 293 292 291 291 292 292 291
295 295 296 295 293 294 293 292 291 289 289 290 292 292 293 292 292 293 293 294 293 293 293 293 295 296 296 296 296 295 295 296 295 294 293 293 292 291 290 290 289 289
296 294 294 293 292 292 290 289 288 288 288 289 289 290 290 290 291 291 292 291 292 291 291 292 293 295 293 293 294 296 295 295 293 292 292 292 290 289 288 288 288 287
295 293 291 292 291 289 288 289 289 288 288 288 288 289 289 289 290 291 291 290 291 290 290 290 292 294 292 294 295 295 294 292 292 291 290 289 289 289 288 287 286 285
293 291 290 290 289 289 289 288 288 288 287 287 288 288 288 288 289 290 290 290 290 290 290 289 289 291 293 293 294 294 293 292 290 290 289 289 288 288 287 286 285 284
291 291 290 289 289 289 289 288 288 287 287 287 288 288 288 289 289 289 289 289 290 290 289 288 288 290 293 293 293 294 293 291 290 290 289 288 287 287 286 285 284 284
291 290 289 289 289 288 288 288 288 288 287 288 287 287 287 287 288 288 288 289 289 289 289 289 289 289 292 292 292 293 293 292 288 288 287 287 286 285 285 284 284 284
291 290 289 289 288 288 288 288 288 287 287 286 287 287 287 287 287 287 288 287 288 288 289 288 288 290 291 292 292 293 293 291 287 287 286 285 285 284 284 284 284 283
291 290 289 289 288 288 287 287 287 287 287 286 286 286 286 286 286 286 286 286 287 287 288 288 286 289 290 291 292 292 293 288 286 286 285 285 284 284 284 284 283 283
291 290 289 289 288 288 287 287 287 287 286 286 286 286 286 286 286 286 286 286 286 286 287 287 286 288 290 290 291 292 291 286 286 285 285 285 284 284 284 283 283 282
291 291 289 288 287 287 287 286 287 286 286 286 286 286 286 285 286 286 286 286 286 286 286 286 286 286 288 290 290 291 289 286 286 285 285 285 284 282 283 282 282 282
291 290 289 288 288 287 287 287 286 286 286 286 286 286 286 286 286 286 285 285 285 286 285 286 286 285 288 289 290 290 289 286 286 285 284 284 283 282 282 281 281 282
290 289 289 288 288 287 287 287 286 286 286 286 286 286 285 285 285 286 285 285 285 285 285 285 285 285 286 289 289 290 290 286 285 285 284 284 283 282 281 281 281 281

ECMWFNIL_sfc_thetae_132.txt.gz
Theta_e
322 322 321 320 321 321 320 318 318 319 319 319 320 320 320 321 320 322 322 322 323 324 324 325 326 326 326 327 326 325 324 324 323 324 323 322 321 321 319 318 317 317
320 319 317 319 318 317 319 319 319 318 319 319 320 320 319 318 319 320 320 321 321 322 323 323 325 325 326 325 324 324 323 323 323 323 323 321 321 320 320 319 317 317
318 318 318 319 320 319 318 317 318 318 319 319 318 318 318 317 318 318 319 320 320 320 321 321 322 323 324 324 323 321 320 321 321 321 319 320 320 319 318 317 316 316
317 318 320 319 319 318 317 316 316 316 315 315 315 316 317 317 317 317 317 314 320 320 320 321 321 322 322 322 321 321 322 322 322 321 320 319 318 319 318 318 317 315
316 316 316 317 316 316 315 316 315 314 314 316 313 311 312 313 314 315 316 317 318 319 319 321 322 322 321 321 319 318 317 318 318 318 318 318 317 317 319 315 312 312
308 311 312 314 312 312 312 313 313 312 312 307 311 307 310 312 312 314 314 314 314 317 318 319 320 320 320 321 320 319 318 311 310 312 312 312 312 307 309 309 306 304
305 305 305 305 306 305 306 305 305 303 306 307 303 306 308 309 311 313 315 315 316 315 317 317 317 318 317 316 316 315 314 313 311 308 310 311 310 308 305 306 307 307
303 302 303 303 305 305 306 305 304 303 303 300 302 302 300 308 310 312 310 313 314 315 315 315 315 318 317 315 313 311 309 310 310 309 309 308 302 304 303 304 304 305
297 298 298 299 301 300 299 299 298 297 297 299 299 298 298 301 303 304 308 308 308 308 310 309 310 307 306 307 308 309 310 309 307 308 308 308 306 306 306 304 302 302
294 290 295 295 298 296 298 297 298 298 297 300 300 300 303 301 302 304 303 304 304 304 303 304 304 303 304 304 308 308 309 310 308 307 307 307 307 307 305 302 302 301
288 288 291 292 295 294 296 294 295 295 295 298 298 301 301 300 300 299 302 303 304 304 305 303 303 304 304 302 302 302 303 305 306 305 304 305 305 305 300 301 301 301
289 289 291 292 293 293 293 292 292 294 295 294 297 302 298 297 298 296 299 300 300 300 300 301 300 300 301 301 301 300 300 300 300 301 301 302 301 300 300 300 301 301
290 292 292 292 292 293 293 295 296 294 296 298 293 296 297 296 294 295 293 296 296 296 297 298 299 298 298 298 298 297 298 298 297 296 296 295 295 296 295 295 295 295
294 293 294 294 294 295 295 295 295 295 294 292 292 297 295 295 296 296 293 293 294 295 295 295 295 295 295 295 295 296 295 295 294 295 294 293 293 293 293 293 293 292
294 295 295 296 295 296 294 294 293 292 290 290 292 291 291 291 291 292 292 293 292 292 293 293 294 295 295 295 295 295 295 295 295 293 292 292 292 291 291 291 291 291
294 294 295 293 293 293 292 290 289 288 289 289 290 289 289 289 290 290 291 292 292 291 291 292 292 294 292 292 294 294 294 294 293 291 291 291 291 291 290 289 290 289
295 294 292 292 293 291 289 289 289 288 288 288 288 288 289 289 289 290 289 289 290 290 290 290 290 292 291 294 294 295 294 293 293 291 291 290 290 291 291 289 288 288
295 293 292 291 290 290 289 288 288 288 288 288 288 288 288 287 288 288 288 289 289 289 289 289 289 289 293 293 294 294 293 293 291 291 290 290 289 290 289 288 288 287
293 292 292 290 290 289 288 288 288 288 288 288 288 287 287 288 288 288 288 288 289 289 289 288 288 290 292 293 293 294 294 292 289 290 290 288 288 288 288 287 286 286
292 291 291 290 289 288 288 288 288 289 288 287 287 288 288 288 288 288 288 288 289 289 289 289 289 289 292 292 292 293 293 292 289 289 289 288 288 287 286 286 286 286
292 291 290 289 288 288 288 288 288 288 287 287 288 288 288 288 288 287 288 288 288 287 288 288 288 289 291 292 292 293 293 292 287 287 286 286 286 286 286 286 286 286
292 291 290 289 288 288 288 288 287 287 287 287 287 287 286 287 287 287 287 287 287 287 287 287 286 289 290 291 292 292 293 288 286 286 285 285 285 285 285 285 285 285
292 291 290 289 288 288 288 288 287 287 287 287 287 287 286 287 286 286 286 286 286 286 286 286 286 287 289 290 291 292 291 286 286 286 285 284 284 284 284 284 283 283
292 291 289 289 288 288 288 288 288 288 287 287 287 287 286 286 286 286 286 286 286 286 286 286 286 286 288 290 290 291 288 285 284 283 281 280 280 281 281 281 281 283
291 291 290 289 288 288 288 287 287 287 287 287 287 287 286 286 286 286 285 285 285 285 285 286 286 285 287 289 290 291 289 286 285 284 283 282 279 281 282 282 282 283
291 290 289 289 288 288 288 288 287 287 286 286 286 287 286 286 286 286 285 285 285 285 285 285 285 285 285 289 290 290 290 285 284 282 281 280 279 281 279 280 280 281

ECMWFNIL_sfc_thetae_135.txt.gz
Theta_e
322 322 322 321 321 321 319 318 317 317 318 318 318 319 319 320 319 321 322 323 323 323 322 321 322 323 324 325 326 325 324 324 324 324 322 321 321 321 321 320 319 319
321 319 317 318 318 316 318 318 317 318 318 318 318 319 318 317 318 319 321 321 321 321 322 322 322 323 324 324 325 325 325 324 324 323 324 322 321 321 321 321 320 319
319 318 318 318 319 317 317 317 317 317 317 317 317 316 317 316 318 317 319 320 321 322 322 323 323 323 324 324 325 324 323 323 323 321 318 319 320 320 320 320 319 318
316 317 318 318 318 318 317 315 315 315 315 315 315 316 316 316 316 316 317 313 320 320 321 322 322 323 323 324 324 323 323 323 323 322 319 316 315 317 318 318 317 317
314 315 317 318 318 316 314 315 315 315 315 316 314 313 312 313 314 314 315 317 318 319 319 320 321 321 321 322 322 322 322 321 320 318 317 316 313 313 316 316 316 316
313 315 315 316 314 314 314 315 315 314 314 312 314 312 313 313 312 312 312 313 313 315 316 318 318 319 320 320 320 320 319 317 315 312 310 311 313 312 314 314 314 314
310 308 309 310 311 311 312 312 312 310 313 312 306 309 309 309 311 312 313 314 314 313 315 315 316 316 316 316 316 315 314 313 312 311 311 310 307 309 307 308 309 310
304 304 308 307 311 309 309 310 309 309 307 302 305 308 304 308 307 310 310 312 313 313 312 313 314 316 314 312 313 314 314 311 308 307 307 307 306 307 308 307 307 308
302 303 303 304 307 306 305 304 302 299 298 301 301 300 296 301 304 304 306 306 307 307 309 307 310 308 305 306 307 308 309 306 305 306 307 306 305 306 307 307 306 305
299 297 298 299 302 300 300 298 297 297 295 297 298 296 297 296 298 301 301 301 303 302 302 303 303 302 303 302 305 304 303 304 303 303 304 305 306 307 306 305 305 304
292 292 296 296 298 297 298 296 295 295 295 297 296 298 299 297 296 296 299 300 301 302 303 300 300 301 302 301 300 299 300 301 301 301 301 302 303 304 301 304 304 303
290 290 294 295 295 295 295 294 293 294 294 294 297 301 295 296 297 296 298 298 297 298 298 298 298 297 298 299 300 298 297 298 298 298 299 301 301 302 302 301 302 302
292 291 290 292 293 294 292 292 293 292 294 295 292 295 295 295 293 294 293 295 294 294 296 296 297 296 296 296 296 296 297 296 296 295 296 296 296 297 297 297 298 298
290 292 292 292 293 293 294 293 293 292 293 291 289 294 293 294 294 294 291 291 293 294 294 293 294 294 294 294 294 294 295 294 294 295 294 293 293 293 292 293 293 294
292 293 294 294 294 295 294 294 293 292 290 290 291 291 292 291 292 293 291 291 290 291 291 291 293 293 293 292 292 293 293 295 294 293 292 292 291 291 290 291 291 291
294 294 295 294 294 294 293 291 291 290 290 290 291 290 290 289 290 291 291 291 291 290 289 290 291 293 291 292 293 293 293 293 293 291 290 290 290 290 290 290 290 290
295 295 294 294 294 292 291 291 291 290 290 290 289 289 290 289 290 291 290 289 291 291 290 289 290 292 291 294 294 294 292 292 292 291 291 290 290 290 289 289 289 289
295 294 293 292 291 292 291 290 289 289 290 290 289 289 289 288 290 290 289 288 289 288 289 288 288 289 292 293 294 294 293 291 291 290 290 289 289 289 288 289 289 288
294 293 292 291 291 291 290 289 289 289 289 289 289 289 287 289 289 288 288 288 289 289 288 287 288 290 292 293 293 293 294 292 289 289 289 288 288 288 288 288 288 287
293 292 292 292 291 290 289 289 289 290 289 289 289 287 288 288 288 288 288 288 288 288 288 288 288 289 291 292 292 292 293 292 288 288 288 288 288 288 288 287 287 287
293 292 291 291 291 289 289 289 289 290 289 288 288 289 289 289 288 289 288 287 287 287 288 288 288 289 291 291 292 293 293 291 287 286 286 286 287 286 286 286 286 286
293 292 291 291 290 289 289 289 289 290 289 288 288 288 288 288 287 288 287 287 287 287 288 288 287 289 290 291 292 292 293 287 286 286 286 286 286 285 285 285 285 285
293 292 291 291 290 289 289 289 289 289 289 288 288 287 287 287 287 286 286 286 286 287 287 287 286 288 289 290 291 292 290 286 286 286 286 285 285 285 285 284 284 283
293 292 291 290 290 289 289 289 289 288 288 288 289 288 287 287 287 286 286 286 286 286 287 286 286 286 288 290 290 291 288 286 286 286 285 285 284 283 282 282 282 283
292 292 291 290 290 290 290 289 289 288 288 287 288 288 287 287 286 286 286 286 286 286 285 286 286 286 288 289 290 291 287 285 285 285 284 283 281 280 278 278 278 280
292 291 291 290 290 289 289 289 288 288 287 287 287 287 287 286 286 286 286 285 285 285 285 286 286 285 285 288 289 290 289 285 284 283 282 280 277 276 276 276 276 277